sat.trackr.live / text

‹ back to catalog

STARLINK-32946

NORAD 63196 · 2025-048P

PAYLOAD ACTIVE UNKNOWN

§ Identity

Operator
Country
US
Launch date
2025-03-13
Launch site
AFETR
Launch vehicle
Mass (kg)
RCS (m²)

Purposes: comms

External: N2YO · Heavens-Above · Gunter

§ Orbital elements

Epoch: 2026-05-25T01:01:55.700256Z

Period
94.26 min
Inclination
43.0032°
Eccentricity
0.0001897
Mean motion
15.27619536 rev/d
Perigee alt
481.6 km
Apogee alt
484.2 km
Semi-major
6,861.1 km
B*
6.1175e-4
RAAN
18.1233°
Arg perigee
263.6224°
Mean anomaly
96.4412°
Rev number
6,872

§ Raw data

STARLINK-329461 63196U 25048P   26145.04300579  .00016630  00000+0  61175-3 0  99982 63196  43.0032  18.1233 0001897 263.6224  96.4412 15.27619536 68721

JSON: /api/v1/satellites/63196 · /tle

For live sub-satellite position, see the globe view (requires WebGL).

§ Visibility from observer

Set your observer location to see the next 7 days of passes ≥ 10°. The values pass through the URL so the page stays shareable.

No JS? Fill the form by hand. The geolocation button needs JavaScript.